Voltar ao catálogo

YUNHAI 1-02

AtivoMeteoSSO
NORAD 44547·PAYLOAD·🇨🇳 China

Lançado Sep 25, 2019 de Jiuquan Satellite Launch Center

Loading…

Próximas Passagens (próximas 24 horas)

TLE

AtualizadoSource: Space-Track

Época: Sep 14, 2026, 14:19 UTC

1 44547U 19063A   26257.59721491  .00000211  00000-0  93392-4 0  9997
2 44547  98.4147 265.4542 0004931 252.6583 107.4062 14.32598479364673

Acompanhe YUNHAI 1-02 em tempo real com AllMySat

Download on the App Store